Weather in Starosokolniki

Russia / Pskov Oblast     56°20′40″N   30°00′37″E
temp.,
°C
wind,
m/s
gust,
m/s
humid.,
%
clouds,
%
prec.,
mm/h
press.,
hPa
HPBL,
m
4 december, sat
sat400:00−4w61294100 0.5 9981219
03:00−5w51290100 0.8 1001767
06:00−6w4129077 0.1 1003638
09:00−7wsw3996100 0.1 1006286
12:00−6wsw369494 0.0 1007228
15:00−5sw1491100 0.0 1007209
18:00−5ese1297100 0.1 100878
21:00−4e2497100 1.0 1008172
5 december, sun
sun500:00−5se1298100 0.5 100855
03:00−4e0197100 0.9 100963
06:00−6nne239886 0.3 101084
09:00−7nne259763 0.4 1011131
12:00−6ne249294 0.1 1013221
15:00−6ne249395 0.2 1014273
18:00−8nne369591 0.1 1015233
21:00−10nne269783 0.2 1017175
6 december, mon
mon600:00−10nne2697100 0.1 1017169
03:00−9nne2695100 0.1 1018176
06:00−9nne379599 0.3 1017197
09:00−8ne2695100 0.5 1017185
12:00−6ene2492100 0.2 1017222
15:00−4ne2493100 0.3 1016248
18:00−5ne2597100 0.4 1015178
21:00−5ne239784 0.9 1015103
7 december, tue
tue700:00−6ne129992 0.3 101440
03:00−7n239793 0.6 101378
06:00−9n2698100 0.2 1013114
09:00−10nnw269685 0.3 1013184
12:00−9nnw359277 0.1 1014217
15:00−9nw269381 0.1 1015307
18:00−13nw279646 0.0 1016178
21:00−15nw269741 0.0 1017126
8 december, wed
wed800:00−16nw269739 0.0 101898
03:00−15nw279758 0.0 1019122
06:00−15nw269852 0.0 1020102
09:00−16nw259860 0.0 102080
12:00−11nnw23895 0.0 1021148
15:00−10n13915 0.0 1021160
18:00−15n219969 0.0 102224
21:00−16ne119972 0.0 10239